Simultaneous Nadir Overpasses (SNOs) Predictions

Prediction of SNOs between NOAA-19 and METOP-C Satellite Orbit:

Table of predicted SNOs for the next 14.0 days since TLE Epoch: 9/18/2021
Index Date (NOAA-19) Time (NOAA-19) Lat,Lon (NOAA-19) SZA (NOAA-19 ) Date (METOP-C) Time (METOP-C) Lat,Lon (METOP-C) SZA (METOP-C ) Distance(km) Time Diff (sec)
1 09/25/2021 04:47:00 -80.72, -44.21 97.18 09/25/2021 04:48:08 -80.71, -41.21 96.91 53.75 68
2 09/25/2021 05:37:59 80.65, 125.04 82.95 09/25/2021 05:38:51 80.65, 125.20 82.98 3.07 52
3 09/25/2021 06:28:54 -80.64, -67.47 97.03 09/25/2021 06:29:32 -80.65, -67.39 97.00 1.86 38
4 09/25/2021 07:19:59 80.65, 99.62 82.99 09/25/2021 07:20:13 80.64, 99.70 82.99 1.85 14
5 09/25/2021 08:10:54 -80.64, -92.89 96.99 09/25/2021 08:10:54 -80.64, -92.89 96.99 0.27 0
6 09/25/2021 09:01:58 80.63, 74.57 83.04 09/25/2021 09:01:34 80.65, 74.54 83.04 1.97 24
7 09/25/2021 09:52:54 -80.64,-118.31 96.96 09/25/2021 09:52:16 -80.63,-118.39 96.99 1.62 38
8 09/25/2021 10:43:58 80.63, 49.15 83.07 09/25/2021 10:42:56 80.64, 49.04 83.05 2.31 62



Historial Predications of SNOs between NOAA-19 and METOP-C
